MOZHAETS 4 (RS22)

Last updated on Sun Aug 09 2026 00:03:15 GMT+0000 (Coordinated Universal Time)

1 27939U 03042A 26220.63607078 .00000624 00000+0 10410-3 0 9998 2 27939 98.3491 46.4851 0012530 100.7217 324.3481 14.73552585223279
UTC large
Height (km)
Speed (km/s)
/
Latitude / Longitude
Inclination (degrees)
Orbital Period (minutes)
Azimuth
Elevation
Range (km)
Doppler Factor

Next 0 passes for location: London (51.5072 / 0.1276)

No passes found over London.
MOZHAETS 4 (RS22)